Tracking 28238 objects as of 28-Nov-2023
HD Live streaming from Space Station
objects crossing your sky now

GAOFEN 8 DEB

Track GAOFEN 8 DEB now!
10-day predictions


NORAD ID: 43422
Int'l Code: 2015-030C
Perigee: 335.7 km
Apogee: 339.3 km
Inclination: 97.5 °
Period: 91.1 minutes
Semi major axis: 6708 km
RCS: Unknown
Launch date: June 26, 2015
Source: People's Republic of China (PRC)
Launch site: Taiyaun Space Center, China (TSC)

Note: This is SATELLITE DEBRIS
Your satellite tracking list
Your tracking list is empty




NASA's NSSDC Master Catalog

Two Line Element Set (TLE):
1 43422U 15030C   23332.58269959  .00130542  00000-0  69621-3 0  9992
2 43422  97.5201 194.0714 0002694  32.2761 327.8671 15.80036675466932
Source of the keplerian elements: AFSPC